Location: İstanbul
(41.0082°N, 28.9784°E)
Time: 04:37:26
(UTC+03:00)

CAS-6 - Pass Details

Date: 30 April 2024
Orbit: 607 x 628 km, 97.8° (Epoch: 24 May)

Event Time Altitude Azimuth Distance (km) Brightness Sun altitude
Exits shadow 00:30:51 12° 297° (WNW) 1,872 ? -33.7°
Drops below altitude 10° 00:31:22 10° 304° (WNW) 1,982 ? -33.7°
Sets 00:34:26 0° 328° (NNW) 2,888 ? -33.8°
